Regional Weather Roundup
Issued by NWS

Home | Current Version | Previous Version | Graphics & Text | Print | Product List | Glossary On
Versions: 1 2 3 4 5 6 7 8 9 10 11 12 13 14 15 16 17 18 19 20 21 22 23 24 25 26 27 28 29 30 31 32 33 34 35 36 37 38 39 40 41 42 43 44 45 46 47 48 49 50
000
ASUS45 KPSR 230310
RWRAZ

ARIZONA HOURLY REGIONAL WEATHER ROUNDUP
NATIONAL WEATHER SERVICE PHOENIX AZ
800 PM MST FRI MAY 22 2015

NOTE: FAIR INDICATES FEW OR NO CLOUDS BELOW 12,000 FEET WITH NO
SIGNIFICANT WEATHER AND/OR OBSTRUCTIONS TO VISIBILITY.

AZZ001>003-036-230400-
NORTHWEST ARIZONA

CITY           SKY/WX    TMP DP  RH WIND       PRES   REMARKS
BULLHEAD CITY  MOCLDY    73  39  29 S10       29.85S
KINGMAN        MOCLDY    54  39  57 S7        29.94R
$$

AZZ004>008-015-016-018-230400-
NORTH CENTRAL ARIZONA

CITY           SKY/WX    TMP DP  RH WIND       PRES   REMARKS
GRAND CANYON   MOCLDY    37  36  96 CALM      30.03R
WILLIAMS       CLOUDY    39  36  87 CALM      30.10S
PRESCOTT       MOCLDY    54  27  35 W8        29.99R
FLAGSTAFF      MOCLDY    40  33  76 W6        30.02R
PAYSON         PTCLDY    55  32  41 W10G17    30.02R
PAGE           CLOUDY    58  35  42 VRB3      29.94R
$$

AZZ009>014-017-230400-
NORTHEAST ARIZONA

CITY           SKY/WX    TMP DP  RH WIND       PRES   REMARKS
WINSLOW        CLEAR     57  30  35 SW16      29.97R
SAINT JOHNS    MOCLDY    59  23  25 SW16G25   29.97R
WINDOW ROCK    MOCLDY    57  15  19 SW14G24   29.99R
SHOW LOW       MOCLDY    50  28  43 SW12      30.04R
$$

AZZ023-230400-
GREATER PHOENIX AREA

CITY           SKY/WX    TMP DP  RH WIND       PRES   REMARKS
PHOENIX        PTCLDY    75  32  20 W20       29.88R
BUCKEYE        CLEAR     68  37  32 S7        29.89S
GLENDALE       PTCLDY   N/A N/A N/A S13       29.90R
LUKE AFB       CLEAR     73  36  26 SW12      29.87R
DEER VALLEY    CLEAR     71  32  23 SW14      29.89R
SCOTTSDALE     PTCLDY    72  31  22 W8        29.91R
MESA-FALCON    PTCLDY    72  32  23 W12       29.90R
MESA-GATEWAY   PTCLDY    73  36  25 NW12G21   29.91R
CHANDLER       PTCLDY    73  34  23 SW20      29.89R
$$

AZZ027-028-230400-
SOUTHWEST MARICOPA COUNTY AND PINAL COUNTY

CITY           SKY/WX    TMP DP  RH WIND       PRES   REMARKS
CASA GRANDE    PTCLDY    72  36  26 W14G22    29.89R
GILA BEND      FAIR      72  35  25 W9        29.89R
$$

AZZ503-504-507>509-230400-
SOUTHEAST ARIZONA

CITY           SKY/WX    TMP DP  RH WIND       PRES   REMARKS
TUCSON         CLOUDY    73  37  27 W12G20    29.96R
DAVIS-MONTHAN  CLOUDY    71  39  31 W15       29.94R
RYAN FIELD       N/A     73  37  27 W10       29.95R
NOGALES        CLEAR     64  37  36 SW9       30.00R
SIERRA VISTA   CLEAR     64  26  23 W10       30.02R
DOUGLAS        CLEAR     69  27  20 SW15      29.98R
SAFFORD        PTCLDY    72  20  14 W20G28    29.86R
$$

AZZ020-021-025-026-031-230400-
SOUTHWEST ARIZONA

CITY           SKY/WX    TMP DP  RH WIND       PRES   REMARKS
YUMA           CLEAR     71  43  36 NW15G23   29.91R
$$

CAZ031-033-041-043-047-048-061-230400-
SOUTHERN CALIFORNIA

CITY           SKY/WX    TMP DP  RH WIND       PRES   REMARKS
DOWNTOWN L.A.  CLOUDY    63  53  70 CALM      30.04R
L.A. AIRPORT   CLOUDY    61  54  77 SW10      30.05R
SAN DIEGO      MOCLDY    63  51  65 NW6       30.08R
BURBANK        CLOUDY    61  51  70 S6        30.04R
ONTARIO        LGT RAIN  59  48  67 SW10      30.05R
RIVERSIDE      CLOUDY    61  50  67 W3        30.04R
PALM SPRINGS   CLEAR     71  41  33 NW12G20   29.89S
EL CENTRO NAS  CLEAR     69  45  41 W26G36    29.93R
IMPERIAL       CLEAR     68  45  43 W16       29.91R
BLYTHE         CLEAR     73  45  36 SW18      29.87R
NEEDLES        CLOUDY    73  40  30 SW7       29.85S
$$

NVZ020-UTZ003-230400-
SOUTHERN NEVADA-UTAH

CITY           SKY/WX    TMP DP  RH WIND       PRES   REMARKS
LAS VEGAS      PTCLDY    67  39  35 SW9       29.83R
SALT LAKE CITY MOCLDY    59  41  51 S13       29.89R
$$

NMZ009-TXZ055-230400-
NEW MEXICO-WEST TEXAS

CITY           SKY/WX    TMP DP  RH WIND       PRES   REMARKS
ALBUQUERQUE    PTCLDY    68  30  24 SE17      29.91S
EL PASO        CLOUDY    83  10   6 W17G24    29.87R
$$


........................KEY........................
SKY/WX - SKY CONDITION/WEATHER
TMP    - TEMPERATURE IN FAHRENHEIT
DP     - DEW POINT IN FAHRENHEIT
RH     - RELATIVE HUMIDITY IN PERCENT
WIND   - DIRECTION AND SPEED IN MILES PER HOUR (MPH)
VRB    - VARIABLE WIND DIRECTION
PRES   - MEAN SEA LEVEL PRESSURE IN INCHES OF MERCURY
         F - FALLING PRESSURE   R - RISING PRESSURE
         S - STEADY PRESSURE
VSB    - VISIBILITY IN MILES
HX     - HEAT INDEX IN FAHRENHEIT
WCI    - WIND CHILL INDEX IN FAHRENHEIT
TC     - TEMPERATURE IN CELSIUS WHICH IS ALSO KNOWN AS
         TEMPERATURE IN CENTIGRADE
AFB    - AIR FORCE BASE
         LUKE AFB IS LUKE AIR FORCE BASE
         DAVIS-MONTHAN IS DAVIS-MONTHAN AIR FORCE BASE
NAS    - NAVAL AIR STATION
         EL CENTRO NAS IS EL CENTRO NAVAL AIR STATION
N/A    - NOT AVAILABLE




USA.gov is the U.S. government's official web portal to all federal, state and local government web resources and services.